JBU122 KJFK-KBOS

Flight info

Callsign JBU122
Flight time 0h 35m
Altitude 21000
Route MERIT ROBUC3
Aircraft A320/M-SDE3FGHIRWY/LB1

Departure

Time 2026-05-05 21:03
Airport John F. Kennedy International Airport (KJFK)

Arrival

Time 2026-05-05 21:39
Airport Boston Logan International Airport (KBOS)
Time Latitude Longitude Altitude Speed Heading
2026-05-05 20:54 40.64532 -73.77290 22 ft 0 kts
2026-05-05 20:56 40.64523 -73.77290 22 ft 2 kts
2026-05-05 20:56 40.64508 -73.77290 22 ft 2 kts
2026-05-05 20:56 40.64494 -73.77294 22 ft 2 kts 28°
2026-05-05 20:57 40.64482 -73.77306 22 ft 2 kts 49°
2026-05-05 20:57 40.64474 -73.77322 22 ft 2 kts 70°
2026-05-05 20:57 40.64471 -73.77335 22 ft 0 kts 86°
2026-05-05 20:57 40.64472 -73.77344 22 ft 0 kts 89°
2026-05-05 20:58 40.64471 -73.77344 22 ft 0 kts 89°
2026-05-05 20:59 40.64471 -73.77270 22 ft 16 kts 90°
2026-05-05 20:59 40.64442 -73.77130 22 ft 15 kts 106°
2026-05-05 20:59 40.64438 -73.77002 22 ft 13 kts 45°
2026-05-05 21:00 40.64526 -73.76975 22 ft 14 kts 17°
2026-05-05 21:00 40.64635 -73.76897 22 ft 20 kts 31°
2026-05-05 21:00 40.64653 -73.76817 22 ft 11 kts 131°
2026-05-05 21:00 40.64643 -73.76802 22 ft 0 kts 129°
2026-05-05 21:01 40.64641 -73.76798 22 ft 4 kts 128°
2026-05-05 21:01 40.64599 -73.76721 22 ft 15 kts 147°
2026-05-05 21:01 40.64539 -73.76733 22 ft 0 kts 211°
2026-05-05 21:02 40.64432 -73.76815 22 ft 48 kts 209°
2026-05-05 21:02 40.63957 -73.77188 22 ft 109 kts 211°
2026-05-05 21:03 40.63150 -73.77824 50 ft 156 kts 208°
2026-05-05 21:03 40.62217 -73.78549 594 ft 158 kts 208°
2026-05-05 21:03 40.61235 -73.79172 1264 ft 161 kts 197°
2026-05-05 21:03 40.60126 -73.79095 1990 ft 170 kts 167°
2026-05-05 21:04 40.59275 -73.77933 2583 ft 202 kts 113°
2026-05-05 21:04 40.59317 -73.76008 3180 ft 224 kts 70°
2026-05-05 21:04 40.60242 -73.74390 3872 ft 226 kts 30°
2026-05-05 21:04 40.61630 -73.73498 4511 ft 228 kts 20°
2026-05-05 21:05 40.63002 -73.72272 4958 ft 249 kts 50°
2026-05-05 21:05 40.63960 -73.70319 5461 ft 265 kts 59°
2026-05-05 21:05 40.65194 -73.68445 5916 ft 282 kts 32°
2026-05-05 21:05 40.66998 -73.67336 6404 ft 293 kts 13°
2026-05-05 21:06 40.68989 -73.66479 6995 ft 306 kts 14°
2026-05-05 21:06 40.70987 -73.65462 7772 ft 312 kts 18°
2026-05-05 21:06 40.72953 -73.64268 8586 ft 316 kts 21°
2026-05-05 21:06 40.74929 -73.62924 9367 ft 319 kts 22°
2026-05-05 21:07 40.76889 -73.61504 10091 ft 323 kts 24°
2026-05-05 21:07 40.78852 -73.60042 10591 ft 335 kts 24°
2026-05-05 21:07 40.80920 -73.58476 10898 ft 353 kts 25°
2026-05-05 21:07 40.83091 -73.56815 11203 ft 369 kts 25°
2026-05-05 21:08 40.85382 -73.55048 11503 ft 385 kts 26°
2026-05-05 21:08 40.87720 -73.53239 12028 ft 392 kts 26°
2026-05-05 21:08 40.90073 -73.51409 12641 ft 395 kts 25°
2026-05-05 21:08 40.92418 -73.49584 13280 ft 396 kts 25°
2026-05-05 21:09 40.94809 -73.47725 13897 ft 399 kts 26°
2026-05-05 21:09 40.97199 -73.45867 14457 ft 403 kts 25°
2026-05-05 21:09 40.99616 -73.43990 15034 ft 405 kts 26°
2026-05-05 21:09 41.02042 -73.42101 15620 ft 407 kts 26°
2026-05-05 21:10 41.04498 -73.40187 16156 ft 411 kts 26°
2026-05-05 21:10 41.06977 -73.38258 16684 ft 413 kts 26°
2026-05-05 21:10 41.09440 -73.36334 17215 ft 415 kts 26°
2026-05-05 21:10 41.11962 -73.34363 17751 ft 417 kts 27°
2026-05-05 21:11 41.14489 -73.32388 18247 ft 419 kts 27°
2026-05-05 21:11 41.17000 -73.30421 18695 ft 423 kts 27°
2026-05-05 21:11 41.19540 -73.28430 19150 ft 426 kts 27°
2026-05-05 21:11 41.22122 -73.26407 19634 ft 428 kts 27°
2026-05-05 21:12 41.24707 -73.24377 20081 ft 430 kts 27°
2026-05-05 21:12 41.27269 -73.22365 20517 ft 433 kts 27°
2026-05-05 21:12 41.29861 -73.20325 20831 ft 435 kts 27°
2026-05-05 21:12 41.32495 -73.18250 20864 ft 434 kts 27°
2026-05-05 21:13 41.35068 -73.16206 20865 ft 436 kts 30°
2026-05-05 21:13 41.37392 -73.13577 20856 ft 441 kts 48°
2026-05-05 21:13 41.38986 -73.10094 20871 ft 445 kts 67°
2026-05-05 21:13 41.39883 -73.06129 20889 ft 447 kts 75°
2026-05-05 21:14 41.40629 -73.02148 20877 ft 447 kts 76°
2026-05-05 21:14 41.41372 -72.98140 20874 ft 447 kts 76°
2026-05-05 21:14 41.42130 -72.94113 20868 ft 447 kts 75°
2026-05-05 21:14 41.42902 -72.90075 20867 ft 447 kts 75°
2026-05-05 21:15 41.43672 -72.86095 20868 ft 448 kts 75°
2026-05-05 21:15 41.44457 -72.82068 20875 ft 458 kts 75°
2026-05-05 21:15 41.45280 -72.77850 20868 ft 471 kts 75°
2026-05-05 21:15 41.46104 -72.73619 20875 ft 483 kts 75°
2026-05-05 21:16 41.46957 -72.69235 20878 ft 491 kts 75°
2026-05-05 21:16 41.47818 -72.64810 20829 ft 494 kts 75°
2026-05-05 21:16 41.48672 -72.60396 20593 ft 492 kts 75°
2026-05-05 21:16 41.49534 -72.55943 20340 ft 489 kts 75°
2026-05-05 21:17 41.50373 -72.51593 20092 ft 488 kts 75°
2026-05-05 21:17 41.51211 -72.47247 19857 ft 486 kts 75°
2026-05-05 21:17 41.52055 -72.42853 19611 ft 483 kts 75°
2026-05-05 21:17 41.52879 -72.38560 19383 ft 481 kts 75°
2026-05-05 21:18 41.53711 -72.34213 19138 ft 480 kts 76°
2026-05-05 21:18 41.54540 -72.29867 18890 ft 477 kts 76°
2026-05-05 21:18 41.55357 -72.25579 18641 ft 476 kts 76°
2026-05-05 21:18 41.56162 -72.21348 18403 ft 474 kts 76°
2026-05-05 21:19 41.56973 -72.17071 18134 ft 473 kts 76°
2026-05-05 21:19 41.57776 -72.12824 17916 ft 471 kts 76°
2026-05-05 21:19 41.58567 -72.08628 17657 ft 469 kts 76°
2026-05-05 21:19 41.59357 -72.04428 17418 ft 468 kts 76°
2026-05-05 21:20 41.60146 -72.00234 17193 ft 468 kts 76°
2026-05-05 21:20 41.60939 -71.96004 16932 ft 466 kts 76°
2026-05-05 21:20 41.61723 -71.91814 16688 ft 465 kts 76°
2026-05-05 21:20 41.62501 -71.87642 16442 ft 464 kts 76°
2026-05-05 21:21 41.63272 -71.83504 16174 ft 463 kts 76°
2026-05-05 21:21 41.64049 -71.79321 15936 ft 462 kts 76°
2026-05-05 21:21 41.64822 -71.75159 15685 ft 460 kts 76°
2026-05-05 21:21 41.65588 -71.71017 15422 ft 459 kts 76°
2026-05-05 21:22 41.66342 -71.66930 15182 ft 457 kts 76°
2026-05-05 21:22 41.67099 -71.62813 14932 ft 456 kts 76°
2026-05-05 21:22 41.67905 -71.58719 14668 ft 455 kts 72°
2026-05-05 21:22 41.68954 -71.54733 14414 ft 453 kts 69°
2026-05-05 21:23 41.70099 -71.50815 14164 ft 452 kts 67°
2026-05-05 21:23 41.71262 -71.46914 13908 ft 451 kts 67°
2026-05-05 21:23 41.72486 -71.43059 13655 ft 449 kts 63°
2026-05-05 21:23 41.73947 -71.39381 13431 ft 446 kts 59°
2026-05-05 21:24 41.75498 -71.35772 13165 ft 446 kts 58°
2026-05-05 21:24 41.77047 -71.32214 12909 ft 445 kts 58°
2026-05-05 21:24 41.78591 -71.28643 12643 ft 444 kts 59°
2026-05-05 21:24 41.80116 -71.25081 12268 ft 442 kts 59°
2026-05-05 21:25 41.81638 -71.21506 11824 ft 441 kts 59°
2026-05-05 21:25 41.83157 -71.17931 11366 ft 439 kts 59°
2026-05-05 21:25 41.84652 -71.14409 11038 ft 437 kts 59°
2026-05-05 21:25 41.86137 -71.10917 11000 ft 427 kts 59°
2026-05-05 21:26 41.87592 -71.07547 10956 ft 409 kts 58°
2026-05-05 21:26 41.88996 -71.04302 10914 ft 392 kts 58°
2026-05-05 21:26 41.90326 -71.01226 10904 ft 375 kts 58°
2026-05-05 21:26 41.91608 -70.98254 10887 ft 360 kts 58°
2026-05-05 21:27 41.92842 -70.95393 10879 ft 344 kts 58°
2026-05-05 21:27 41.94009 -70.92683 10894 ft 332 kts 58°
2026-05-05 21:27 41.95169 -70.89986 10906 ft 332 kts 58°
2026-05-05 21:27 41.96323 -70.87309 10916 ft 331 kts 58°
2026-05-05 21:28 41.97478 -70.84615 10947 ft 332 kts 58°
2026-05-05 21:28 41.98633 -70.81922 10784 ft 333 kts 58°
2026-05-05 21:28 41.99784 -70.79234 10433 ft 333 kts 58°
2026-05-05 21:28 42.01001 -70.76595 10088 ft 331 kts 52°
2026-05-05 21:29 42.02411 -70.74187 9934 ft 321 kts 46°
2026-05-05 21:29 42.03881 -70.71954 9665 ft 322 kts 45°
2026-05-05 21:29 42.05380 -70.69691 9366 ft 324 kts 44°
2026-05-05 21:29 42.07032 -70.67730 9037 ft 315 kts 22°
2026-05-05 21:30 42.09081 -70.67024 8694 ft 294 kts 349°
2026-05-05 21:30 42.11048 -70.67593 8341 ft 281 kts 333°
2026-05-05 21:30 42.12915 -70.68440 7970 ft 282 kts 333°
2026-05-05 21:30 42.14781 -70.69215 7609 ft 285 kts 336°
2026-05-05 21:31 42.16704 -70.69901 7138 ft 282 kts 338°
2026-05-05 21:31 42.18609 -70.70506 6480 ft 284 kts 339°
2026-05-05 21:31 42.20546 -70.71078 5797 ft 285 kts 340°
2026-05-05 21:31 42.22467 -70.71616 5150 ft 285 kts 340°
2026-05-05 21:32 42.24393 -70.72142 4527 ft 284 kts 340°
2026-05-05 21:32 42.26333 -70.72667 3912 ft 283 kts 341°
2026-05-05 21:32 42.28255 -70.73185 3358 ft 281 kts 341°
2026-05-05 21:32 42.30171 -70.73701 3067 ft 281 kts 341°
2026-05-05 21:33 42.32022 -70.74194 3018 ft 266 kts 340°
2026-05-05 21:33 42.33831 -70.74676 3039 ft 264 kts 340°
2026-05-05 21:33 42.35631 -70.75166 3039 ft 264 kts 340°
2026-05-05 21:33 42.37434 -70.75652 3026 ft 257 kts 340°
2026-05-05 21:34 42.39074 -70.76266 2998 ft 234 kts 320°
2026-05-05 21:34 42.40070 -70.77715 2966 ft 192 kts 276°
2026-05-05 21:34 42.40013 -70.79334 2803 ft 168 kts 241°
2026-05-05 21:34 42.39510 -70.80755 2597 ft 167 kts 241°
2026-05-05 21:35 42.39077 -70.82205 2430 ft 165 kts 245°
2026-05-05 21:35 42.38741 -70.83658 2240 ft 161 kts 248°
2026-05-05 21:35 42.38457 -70.85119 2006 ft 159 kts 249°
2026-05-05 21:35 42.38205 -70.86523 1810 ft 147 kts 249°
2026-05-05 21:36 42.37980 -70.87807 1592 ft 135 kts 249°
2026-05-05 21:36 42.37764 -70.89022 1409 ft 133 kts 249°
2026-05-05 21:36 42.37574 -70.90246 1239 ft 131 kts 251°
2026-05-05 21:36 42.37391 -70.91447 1102 ft 131 kts 249°
2026-05-05 21:37 42.37168 -70.92632 995 ft 130 kts 247°
2026-05-05 21:37 42.36930 -70.93824 797 ft 131 kts 248°
2026-05-05 21:37 42.36718 -70.95021 666 ft 130 kts 249°
2026-05-05 21:37 42.36490 -70.96197 448 ft 130 kts 248°
2026-05-05 21:38 42.36272 -70.97395 239 ft 129 kts 250°
2026-05-05 21:38 42.36069 -70.98560 81 ft 125 kts 247°
2026-05-05 21:38 42.35861 -70.99676 20 ft 113 kts 249°
2026-05-05 21:38 42.35711 -71.00517 20 ft 69 kts 257°
2026-05-05 21:39 42.35635 -71.00983 23 ft 31 kts 261°
2026-05-05 21:39 42.35703 -71.01231 24 ft 27 kts 307°
2026-05-05 21:39 42.35780 -71.01453 24 ft 24 kts 287°
2026-05-05 21:39 42.35873 -71.01576 23 ft 16 kts 345°
2026-05-05 21:40 42.35949 -71.01632 23 ft 12 kts
2026-05-05 21:40 42.36041 -71.01607 23 ft 14 kts 22°
2026-05-05 21:40 42.36110 -71.01593 22 ft 8 kts 295°
2026-05-05 21:40 42.36126 -71.01659 22 ft 0 kts 290°